This demonstration page uses our WeatherBlox Daily Observations layout. Learn more.

Left ArrowRight Arrow

36.17497, -115.13722

Hourly Observations for October 24, 2019

Temp ( °F °C ) Dew Point ( °F °C ) Humidity (%) Winds ( mph kmh ) Pressure ( in mb ) Visibility ( mi km ) Precip ( " mm )
12:53 am 00:53 Clear 71 21.7 10 -12.2 9 9 N 8 13 30.1 1019 10 16.0934 N/A
1:53 am 01:53 Clear 67 19.4 12 -11.1 12 12 E 14 22 30.12 1020 10 16.0934 N/A
2:53 am 02:53 Clear 65 18.3 14 -10 14 14 E 13 20 30.15 1021 10 16.0934 N/A
3:53 am 03:53 Clear 63 17.2 13 -10.6 14 14 ENE 17 28 30.18 1022 10 16.0934 N/A
4:53 am 04:53 Clear 61 16.1 13 -10.6 15 15 NE 13 20 30.22 1023 10 16.0934 N/A
5:53 am 05:53 Clear 61 16.1 14 -10 16 16 N 6 9 30.25 1024 10 16.0934 N/A
6:53 am 06:53 Clear 60 15.6 14 -10 16 16 NNE 7 11 30.27 1025 10 16.0934 N/A
7:53 am 07:53 Sunny 61 16.1 13 -10.6 15 15 NNE 7 11 30.31 1026 10 16.0934 N/A
8:53 am 08:53 Sunny 63 17.2 13 -10.6 14 14 NW 8 13 30.34 1027 10 16.0934 N/A
9:53 am 09:53 Sunny 66 18.9 14 -10 13 13 undefined N/A 30.34 1027 10 16.0934 N/A
10:53 am 10:53 Sunny 67 19.4 14 -10 13 13 N 9 15 30.34 1027 10 16.0934 N/A
11:53 am 11:53 Sunny 67 19.4 13 -10.6 12 12 N N/A 30.31 1027 10 16.0934 N/A
12:53 pm 12:53 Sunny 70 21.1 14 -10 11 11 N N/A 30.28 1026 10 16.0934 N/A
1:53 pm 13:53 Sunny 71 21.7 13 -10.6 10 10 E 7 11 30.26 1025 10 16.0934 N/A
2:53 pm 14:53 Sunny 72 22.2 12 -11.1 10 10 E 6 9 30.25 1024 10 16.0934 N/A
3:53 pm 15:53 Sunny 73 22.8 11 -11.7 9 9 VRB 6 9 30.24 1024 10 16.0934 N/A
4:53 pm 16:53 Sunny 73 22.8 10 -12.2 9 9 ENE 5 7 30.23 1024 10 16.0934 N/A
5:53 pm 17:53 Sunny 71 21.7 9 -12.8 9 9 E 5 7 30.24 1024 10 16.0934 N/A
6:53 pm 18:53 Clear 69 20.6 11 -11.7 10 10 ENE 6 9 30.25 1025 10 16.0934 N/A
7:53 pm 19:53 Clear 67 19.4 12 -11.1 12 12 N N/A 30.27 1025 10 16.0934 N/A
8:53 pm 20:53 Clear 61 16.1 8 -13.3 12 12 E 10 17 30.29 1026 10 16.0934 N/A
9:53 pm 21:53 Clear 63 17.2 14 -10 15 15 SE 3 6 30.29 1026 10 16.0934 N/A
10:53 pm 22:53 Clear 62 16.7 15 -9.4 16 16 ENE 6 9 30.31 1026 10 16.0934 N/A
11:53 pm 23:53 Clear 61 16.1 17 -8.3 18 18 N N/A 30.32 1027 10 16.0934 N/A

Powered by AerisWeather